Location: Al Mulaqqa?ah
(24.1833°N, 32.8833°E)
Time: 22:19:26
(UTC+00:00)

Intelsat 5-3 Rocket - Pass Details

Date: 26 September 2021
Orbit: 282 x 6015 km, 23.5° (Epoch: 20 October)

Event Time Altitude Azimuth Distance (km) Brightness Sun altitude
Rises 18:03:45 0° 269° (W) 2,521 6.7 -33.2°
Reaches altitude 10° 18:05:16 10° 268° (W) 1,883 5.8 -33.5°
Enters shadow 18:07:07 32° 267° (W) 1,216 4.4 -33.9°
